Flag for Canada Weather past 2 weeks in Hamilton, Ontario, Canada

Now
59 °F

Overcast.


Feels Like: 58 °F
Forecast: 59 / 71 °F
Wind: 6 mph from Southwest

Location: Hamilton Airport

Current Time: Jul 30, 2014 at 1:52:20 AM

Latest Report: Jul 30, 2014 at 1:00 AM


Visibility: 15 mi

Pressure: 29.95 "Hg

Humidity: 94%

Dew point: 57 °F

Location of HamiltonLocation

Historic Weather in Hamilton — Graph

°F

Hamilton temperature yesterday

Maximum temperature yesterday: 70 °F (at 3:00 PM)
Minimum temperature yesterday: 52 °F (at 2:00 AM)
Average temperature yesterday: 60 °F

Past Weeks' High & Low Weather Summary

 TemperatureHumidityPressure
High82 °F (Jul 21, 4:00 PM)100% (Jul 15, 4:00 AM)30.25 "Hg (Jul 15, 4:00 AM)
Low48 °F (Jul 17, 5:00 AM)38% (Jul 17, 4:00 PM)29.57 "Hg (Jul 27, 9:00 PM)
Average65 °F77%29.96 "Hg
* Reported Midnight between Jul 14 and Jul 15 — Midnight between Jul 29 and Jul 30, Hamilton, Weather by CustomWeather, © 2014

Note: Actual official high and low records may vary slightly from our data, if they occured in-between our weather recording intervals... More about our weather records

Advertising

Hamilton weather history for previous 24 hours

 ConditionsComfort  
Time TempWeatherWind HumidityBarometerVisibility
12:00 AM
Jul 30
61 °FPassing clouds.6 mph83%29.95 "Hg15 mi
11:00 PM
Jul 29
61 °FPartly cloudy.7 mph83%29.95 "Hg15 mi
10:00 PM59 °FPartly cloudy.8 mph88%29.96 "Hg15 mi
9:00 PM61 °FSprinkles. More clouds than sun.8 mph83%29.96 "Hg15 mi
8:00 PM63 °FOvercast.8 mph73%29.96 "Hg15 mi
7:00 PM64 °FPartly sunny.9 mph68%29.96 "Hg15 mi
6:00 PM66 °FMostly cloudy.8 mph64%29.94 "Hg15 mi
5:00 PM66 °FOvercast.9 mph64%29.94 "Hg15 mi
4:00 PM66 °FMore clouds than sun.8 mph60%29.94 "Hg15 mi
3:00 PM70 °FPartly sunny.9 mph53%29.94 "Hg15 mi
2:00 PM68 °FPartly sunny.8 mph49%29.95 "Hg15 mi
1:00 PM68 °FBroken clouds.9 mph49%29.95 "Hg15 mi
12:00 PM66 °FBroken clouds.6 mph56%29.95 "Hg15 mi
11:00 AM64 °FPartly sunny.7 mph68%29.95 "Hg15 mi
10:00 AM61 °FPartly sunny.6 mph77%29.96 "Hg15 mi
9:00 AM59 °FOvercast.6 mph77%29.94 "Hg15 mi
8:00 AM55 °FOvercast.7 mph88%29.93 "Hg15 mi
7:00 AM55 °FOvercast.7 mph88%29.92 "Hg15 mi
6:00 AM54 °FOvercast.7 mph88%29.91 "Hg15 mi
5:00 AM54 °FPassing clouds.6 mph88%29.89 "Hg15 mi
4:00 AM54 °FPassing clouds.8 mph88%29.89 "Hg15 mi
3:00 AM52 °FPassing clouds.9 mph94%29.89 "Hg15 mi
2:00 AM52 °FClear.8 mph88%29.89 "Hg20 mi
1:00 AM54 °FPassing clouds.10 mph82%29.89 "Hg15 mi
Weather by CustomWeather, © 2014

See weather overviewHow to use our weather pages